Location: NJAA Observatory
(40.6819°N, 74.8979°W)
Time: 09:17:08
(UTC-04:00)

Iridium 56 - Visible Passes

Search period start: 31 August 2015 00:00
Search period end: 10 September 2015 00:00
Orbit: 776 x 779 km, 86.4° (Epoch: 30 August)

Date Brightness Start Highest point End Pass type
(mag) Time Alt. Az. Time Alt. Az. Time Alt. Az.
31 Aug 5.6 20:05:26 10° S 20:10:39 88° WNW 20:15:54 10° N visible
01 Sep 8.3 21:14:37 10° WSW 21:18:17 19° WNW 21:21:48 10° NNW visible
02 Sep 7.4 20:39:44 10° SW 20:44:26 33° W 20:49:07 10° NNW visible
03 Sep 6.2 20:05:37 10° SSW 20:10:46 61° W 20:15:56 10° N visible
04 Sep 8.7 21:16:14 10° W 21:18:40 13° WNW 21:20:48 10° NW visible
05 Sep 8.1 20:40:32 10° SW 20:44:42 23° WNW 20:48:47 10° NNW visible
06 Sep 7.0 20:06:00 10° SSW 20:10:55 42° W 20:15:52 10° NNW visible
08 Sep 8.1 06:02:51 10° NNE 06:07:12 27° ENE 06:11:38 10° SE visible
08 Sep 8.6 20:41:42 10° WSW 20:45:03 16° WNW 20:48:11 10° NW visible
09 Sep 8.9 05:30:29 10° NE 05:33:17 15° ENE 05:36:21 10° ESE visible
09 Sep 7.8 20:06:37 10° SW 20:11:09 29° WNW 20:15:39 10° NNW visible
